| time (UTC) | temp F | wind direction | speed knots | gust knots | rain 1hr in | rain 24hr in | rain mn in | humidity % | barometer mb |
| 20260504043041 | 49 | 0.0 | 0.9 | 0.00 | 0.00 | 0.00 | 67 | 1006.1 | |
| 20260504040100 | 43 | 0.0 | 1.7 | 0.00 | 0.00 | 0.00 | 86 | 1006.2 | |
| 20260504033101 | 37 | 0.0 | 2.6 | 0.00 | 0.00 | 0.00 | 89 | 1006.2 | |
| 20260504030041 | 33 | 270 | 0.9 | 2.6 | 0.00 | 0.00 | 0.00 | 89 | 1006.0 |
| 20260504023040 | 30 | 270 | 0.9 | 3.5 | 0.00 | 0.00 | 0.00 | 90 | 1006.2 |
| 20260504020040 | 28 | 248 | 0.9 | 3.5 | 0.00 | 0.00 | 0.00 | 89 | 1006.2 |
| 20260504013040 | 30 | 248 | 0.9 | 4.3 | 0.00 | 0.00 | 0.00 | 89 | 1006.2 |
| 20260504010413 | 30 | 293 | 0.9 | 2.6 | 0.00 | 0.00 | 0.00 | 89 | 1006.2 |
| 20260504003041 | 29 | 293 | 0.9 | 3.5 | 0.00 | 0.00 | 0.00 | 89 | 1006.3 |
| 20260504000041 | 30 | 293 | 1.7 | 3.5 | 0.00 | 0.00 | 0.00 | 88 | 1006.4 |
| 20260503233040 | 32 | 315 | 0.9 | 3.5 | 0.00 | 0.00 | 0.00 | 89 | 1006.6 |
| 20260503230040 | 31 | 293 | 1.7 | 3.5 | 0.00 | 0.00 | 0.00 | 89 | 1006.4 |
| 20260503223040 | 31 | 338 | 1.7 | 3.5 | 0.00 | 0.00 | 0.00 | 88 | 1006.5 |
| 20260503220043 | 33 | 338 | 0.9 | 3.5 | 0.00 | 0.00 | 0.00 | 88 | 1006.7 |
| 20260503213042 | 33 | 293 | 0.9 | 1.7 | 0.00 | 0.00 | 0.00 | 87 | 1006.9 |
| 20260503210040 | 33 | 293 | 1.7 | 3.5 | 0.00 | 0.00 | 0.00 | 86 | 1007.0 |
| 20260503203041 | 35 | 270 | 1.7 | 4.3 | 0.00 | 0.00 | 0.00 | 86 | 1007.1 |
| 20260503200044 | 36 | 270 | 1.7 | 3.5 | 0.00 | 0.00 | 0.00 | 85 | 1007.1 |
| 20260503193041 | 35 | 270 | 1.7 | 3.5 | 0.00 | 0.00 | 0.00 | 84 | 1007.1 |
| 20260503190432 | 37 | 270 | 2.6 | 4.3 | 0.00 | 0.00 | 0.00 | 83 | 1007.2 |
| 20260503183047 | 36 | 270 | 1.7 | 4.3 | 0.00 | 0.00 | 0.00 | 81 | 1007.3 |
| 20260503180100 | 38 | 270 | 2.6 | 4.3 | 0.00 | 0.00 | 0.00 | 78 | 1007.4 |
| 20260503173040 | 41 | 270 | 2.6 | 4.3 | 0.00 | 0.00 | 0.00 | 76 | 1007.3 |
| 20260503110142 | 57 | 23 | 5.2 | 8.7 | 0.00 | 0.00 | 0.00 | 43 | 1007.9 |
| 20260503090414 | 57 | 68 | 5.2 | 12.2 | 0.00 | 0.00 | 0.00 | 45 | 1008.2 |
| 20260503060202 | 54 | 45 | 7.0 | 12.2 | 0.00 | 0.00 | 0.00 | 55 | 1009.3 |
| 20260503053041 | 53 | 45 | 5.2 | 9.6 | 0.00 | 0.00 | 0.00 | 60 | 1009.5 |